Lid_Strength_Index
3 5 6 5 10 12 13 11 9 9 9 8 7 7 8 8 9 12 3 0 -0 -0 -1 -1 -1 -2 -2 -2 -2 -2 -2 -2 -2 -2 -2 -2 -2 -2 -2 -2 -2 -2 -2 -2 -2 -2 -2 -2 -2
5 4 5 8 12 14 14 11 10 8 7 7 6 7 7 9 5 4 3 0 -0 -0 -1 -1 -1 -2 -2 -2 -2 -2 -2 -2 -2 -2 -2 -2 -2 -2 -2 -2 -2 -2 -2 -2 -2 -2 -2 -2 -2
4 5 7 10 13 14 13 11 9 8 7 7 8 6 7 8 4 4 2 0 -0 -0 -1 -1 -1 -2 -2 -2 -2 -2 -2 -2 -2 -2 -2 -2 -2 -2 -2 -3 -2 -3 -2 -2 -2 -2 -2 -2 -2
6 8 8 11 14 11 11 10 8 9 8 7 7 8 6 3 3 2 1 0 0 0 -1 -1 -1 -2 -2 -2 -2 -2 -2 -2 -2 -2 -2 -2 -2 -2 -2 -2 -2 -2 -2 -2 -2 -2 -2 -2 -2
8 8 11 13 13 12 10 8 8 8 9 9 8 9 7 4 3 2 1 0 1 1 -0 -1 -1 -1 -2 -2 -2 -2 -2 -2 -2 -2 -2 -2 -2 -2 -2 -2 -2 -2 -2 -2 -2 -2 -2 -2 -2
9 9 13 15 13 11 10 8 8 9 9 9 8 8 7 3 3 3 1 1 1 1 -0 -1 0 -1 -1 -1 -2 -2 -2 -2 -2 -2 -2 -2 -2 -2 -3 -2 -2 -2 -2 -2 -2 -2 -2 -2 -2
9 11 13 13 12 11 10 8 9 9 8 9 8 9 6 4 2 3 1 1 1 0 -0 -0 -0 0 0 -0 -1 -1 -1 -2 -2 -2 -2 -2 -2 -3 -3 -3 -2 -2 -2 -2 -2 -2 -2 -2 -2
8 9 13 12 12 11 9 9 8 9 9 7 6 9 9 5 2 2 1 1 1 1 -0 0 0 -0 -0 0 1 0 -0 -1 -1 -1 -1 -1 -2 -2 -2 -1 -2 -3 -2 -2 -2 -2 -2 -2 -2
6 11 12 11 11 11 9 10 9 8 8 8 6 6 4 2 2 3 2 1 2 1 0 0 0 0 -0 -0 1 1 1 0 0 -0 0 0 -0 -0 -0 -1 -2 -3 -2 -2 -2 -2 -2 -1 -1
10 11 10 9 10 10 9 9 9 10 9 8 6 4 3 3 3 4 3 3 2 2 1 1 0 0 -0 -1 0 0 0 0 0 0 0 0 0 0 0 0 -1 -2 -2 -2 -2 -2 -1 -1 1
10 10 10 9 8 7 9 9 9 10 10 8 8 6 4 4 4 4 4 3 2 1 1 0 1 1 0 0 0 1 1 -0 0 1 1 -0 -0 1 2 1 1 2 1 1 0 1 1 1 1
10 9 9 8 8 8 9 8 9 9 9 7 5 4 4 4 4 4 4 3 2 2 1 1 0 1 0 0 -0 0 0 1 -0 -0 -0 -0 0 2 2 2 2 2 2 2 2 2 2 2 1
10 10 9 9 9 9 7 9 9 9 8 7 5 4 4 4 4 3 3 3 2 2 1 1 1 0 0 0 1 0 0 1 1 -0 -1 -0 0 2 2 2 2 2 2 2 2 2 2 2 1
9 10 10 10 10 9 9 10 10 9 8 6 4 5 5 4 4 3 3 3 3 2 1 0 1 1 -0 1 0 0 0 0 1 1 0 -1 1 1 2 2 2 2 2 2 2 2 2 2 2
10 12 11 11 10 11 10 11 10 9 8 9 7 6 5 4 4 4 3 3 2 1 1 1 0 0 1 1 1 0 0 0 0 0 1 0 1 2 2 2 2 2 2 2 2 2 2 3 2
12 12 15 11 10 10 11 13 9 9 10 10 10 9 8 7 4 3 3 3 2 2 2 1 0 0 0 1 1 0 0 0 0 -0 0 1 1 1 2 3 3 2 3 3 3 3 3 3 3
14 17 15 14 11 11 12 13 11 10 11 11 11 11 10 9 8 6 4 3 2 2 2 2 1 0 0 -0 1 0 -0 0 1 0 0 0 1 1 2 3 3 3 3 4 4 4 4 4 4
16 16 15 15 13 12 14 13 11 11 11 11 12 12 11 10 9 7 5 4 3 2 1 2 1 1 0 -0 0 0 0 0 1 0 0 0 1 1 2 3 3 3 4 5 5 5 5 4 4
13 14 15 14 12 12 13 13 12 11 12 12 12 11 11 10 9 8 6 4 4 3 2 2 2 1 1 1 1 1 1 1 1 1 0 1 1 1 2 3 3 4 5 5 6 6 5 6 6
13 15 15 14 12 13 14 13 12 12 11 11 11 11 11 11 10 9 8 6 4 4 3 2 2 2 1 1 1 1 1 0 0 1 1 1 1 1 1 2 3 4 5 5 6 6 7 6 5
14 14 15 14 13 14 15 16 14 12 11 11 11 10 10 10 9 9 9 8 7 6 5 4 2 1 1 2 1 2 1 1 1 1 1 1 1 1 1 1 2 4 5 5 6 6 5 6 6
15 13 13 13 16 18 16 20 16 14 13 12 11 11 10 10 10 9 9 10 10 9 8 9 8 3 1 2 2 2 2 3 1 1 0 0 1 1 1 1 2 3 4 5 5 6 6 7 8
13 12 13 13 15 17 18 19 17 15 15 12 11 11 11 11 10 9 8 7 7 7 7 6 6 8 8 2 2 2 2 2 2 1 1 1 1 1 2 2 2 3 4 5 5 7 7 6 7
11 12 13 15 16 20 18 18 19 16 14 13 12 11 11 9 9 9 8 8 7 5 5 5 5 6 7 7 2 2 3 2 2 2 2 1 2 2 2 2 2 3 4 5 5 5 6 6 6
13 15 19 19 20 21 18 19 17 14 13 12 12 11 10 10 10 9 9 8 8 8 5 5 6 8 7 7 3 2 2 2 2 2 1 1 2 3 2 2 3 3 3 4 4 5 6 6 7
14 15 18 22 21 20 18 20 16 13 13 13 12 11 11 10 10 9 9 9 8 7 6 6 6 5 4 4 3 3 3 3 2 1 1 1 2 2 2 2 2 3 3 3 4 5 5 6 6
14 16 13 17 24 21 19 17 14 13 12 13 14 11 11 10 10 9 9 9 8 8 7 6 5 5 5 4 4 4 4 4 3 2 2 2 3 3 3 3 3 3 3 3 4 5 6 6 7
13 12 16 17 24 24 20 20 18 15 14 14 13 12 11 11 10 10 9 9 9 8 8 7 6 6 6 6 6 6 5 5 4 5 5 6 6 6 5 5 4 5 5 4 5 6 6 7 7
14 15 15 15 17 21 23 20 16 14 13 13 13 13 12 11 11 11 10 10 9 9 8 8 7 6 6 6 7 7 6 6 6 7 7 7 7 6 7 6 5 5 5 5 6 6 6 7 6
12 14 14 17 19 18 18 18 14 13 13 12 13 12 11 11 10 10 10 10 11 10 10 9 9 9 8 7 8 8 8 7 8 8 8 7 8 8 8 8 8 8 8 9 9 8 8 8 8